Location: Moena
(46.3667°N, 11.6500°E)
Time: 08:40:24
(UTC+00:00)

GP-B - Pass Details

Date: 17 June 2021
Orbit: 631 x 635 km, 89.8° (Epoch: 28 July)

Event Time Altitude Azimuth Distance (km) Brightness Sun altitude
Rises 22:13:51 0° 15° (NNE) 2,944 7.6 -18.9°
Reaches altitude 10° 22:16:39 10° 33° (NNE) 2,029 6.3 -19.0°
Maximum altitude 22:19:52 19° 80° (E) 1,503 5.0 -19.1°
Enters shadow 22:21:13 17° 103° (ESE) 1,605 4.9 -19.2°
